Location: Caltech
(34.1382°N, 118.1253°W)
Time: 08:27:57
(UTC-07:00)

Gurwin Techsat 1B - Visible Passes

Search period start: 21 April 2018 00:00
Search period end: 01 May 2018 00:00
Orbit: 812 x 814 km, 98.6° (Epoch: 20 April)

Date Brightness Start Highest point End Pass type
(mag) Time Alt. Az. Time Alt. Az. Time Alt. Az.
21 Apr 10.2 02:48:45 10° N 02:51:26 31° N 02:51:26 31° N visible
22 Apr 10.5 02:26:01 10° NNE 02:28:26 27° NNE 02:28:26 27° NNE visible
22 Apr 10.6 04:07:44 10° NNW 04:09:38 14° NW 04:09:38 14° NW visible
23 Apr 10.8 02:03:32 10° NNE 02:05:25 20° NE 02:05:25 20° NE visible
23 Apr 10.2 03:43:51 10° NNW 03:46:38 22° NW 03:46:38 22° NW visible
24 Apr 11.2 01:41:29 10° NE 01:42:24 13° NE 01:42:24 13° NE visible
24 Apr 9.9 03:20:30 10° N 03:23:36 30° NNW 03:23:36 30° NNW visible
25 Apr 9.8 02:57:25 10° N 03:00:35 36° N 03:00:35 36° N visible
26 Apr 10.1 02:34:35 10° NNE 02:37:34 34° NNE 02:37:34 34° NNE visible
26 Apr 10.7 04:17:07 10° NW 04:18:47 12° WNW 04:18:47 12° WNW visible
27 Apr 10.5 02:12:00 10° NNE 02:14:33 26° NE 02:14:33 26° NE visible
27 Apr 10.3 03:52:49 10° NNW 03:55:45 20° NW 03:55:45 20° NW visible
28 Apr 10.9 01:49:45 10° NE 01:51:32 18° ENE 01:51:32 18° ENE visible
28 Apr 9.9 03:29:18 10° N 03:32:44 29° NW 03:32:44 29° NW visible
29 Apr 11.3 01:28:09 10° ENE 01:28:30 11° ENE 01:28:30 11° ENE visible
29 Apr 9.6 03:06:08 10° N 03:09:43 40° NNW 03:09:43 40° NNW visible
30 Apr 9.6 02:43:12 10° NNE 02:46:41 42° NNE 02:46:41 42° NNE visible
